This is the latest recevied weather packets stored in our database for station/object VK4RM-13. If no packets are shown the sender has not sent any weather packets the latest 10 day(s).
| Time | Temp. | Humidity | Pressure | Rain* | Wind** | Luminosity | Snow |
|---|---|---|---|---|---|---|---|
| 1778031396 | 25.56° C | 73% | 995 hPa | 0 mm | - | - | - |
| 1778030797 | 25.56° C | 72% | 995.1 hPa | 0 mm | - | - | - |
| 1778030197 | 25° C | 73% | 995.1 hPa | 0 mm | - | - | - |
| 1778029597 | 25° C | 73% | 995.3 hPa | 0 mm | - | - | - |
| 1778028997 | 25° C | 73% | 995.4 hPa | 0 mm | - | - | - |
| 1778028396 | 25.56° C | 72% | 995.6 hPa | 0 mm | - | - | - |
| 1778027796 | 25.56° C | 72% | 995.7 hPa | 0 mm | - | - | - |
| 1778027196 | 25° C | 74% | 995.9 hPa | 0 mm | - | - | - |
| 1778026596 | 25° C | 74% | 995.9 hPa | 0 mm | - | - | - |
| 1778025997 | 25° C | 74% | 995.8 hPa | 0 mm | - | - | - |
| 1778025396 | 25° C | 74% | 996 hPa | 0 mm | - | - | - |
| 1778024797 | 25° C | 75% | 995.8 hPa | 0 mm | - | - | - |
| 1778024197 | 24.44° C | 75% | 995.9 hPa | 0 mm | - | - | - |
| 1778023597 | 24.44° C | 75% | 996 hPa | 0 mm | - | - | - |
| 1778022997 | 23.89° C | 77% | 995.9 hPa | 0 mm | - | - | - |
| 1778022397 | 23.89° C | 78% | 995.8 hPa | 0 mm | - | - | - |
| 1778021797 | 23.33° C | 80% | 995.8 hPa | 0 mm | - | - | - |
| 1778021197 | 22.78° C | 82% | 995.6 hPa | 0 mm | - | - | - |
| 1778020597 | 22.22° C | 82% | 995.6 hPa | 0 mm | - | - | - |
| 1778019997 | 22.22° C | 84% | 995.5 hPa | 0 mm | - | - | - |
| 1778019397 | 21.67° C | 86% | 995.6 hPa | 0 mm | - | - | - |
| 1778018797 | 21.11° C | 88% | 995.6 hPa | 0 mm | - | - | - |
| 1778018197 | 20.56° C | 90% | 995.6 hPa | 0 mm | - | - | - |
| 1778017597 | 20° C | 93% | 995.6 hPa | 0 mm | - | - | - |
| 1778016997 | 20° C | 94% | 995.5 hPa | 0 mm | - | - | - |
* Rain latest hour (hover to see other rain measurements)
** Current wind speed in m/s (hover to see current wind gust speed)